| time (UTC) | temp C | wind direction | speed KPH | gust KPH | rain 1hr cm | rain 24hr cm | rain mn cm | humidity % | barometer mb |
| 20260504202007 | 24 | 214 | 6.4 | 12.9 | 0.00 | 0.00 | 0.00 | 44 | 1016.1 |
| 20260504201008 | 24 | 231 | 6.4 | 11.3 | 0.00 | 0.00 | 0.00 | 44 | 1016.2 |
| 20260504200505 | 25 | 109 | 3.2 | 16.1 | 0.00 | 0.00 | 0.00 | 42 | 1016.2 |
| 20260504195507 | 25 | 236 | 1.6 | 9.7 | 0.00 | 0.00 | 0.00 | 44 | 1016.6 |
| 20260504195007 | 25 | 190 | 3.2 | 9.7 | 0.00 | 0.00 | 0.00 | 47 | 1016.6 |
| 20260504194009 | 25 | 229 | 1.6 | 8.0 | 0.00 | 0.00 | 0.00 | 45 | 1016.8 |
| 20260504193509 | 25 | 250 | 3.2 | 8.0 | 0.00 | 0.00 | 0.00 | 41 | 1016.9 |
| 20260504192505 | 25 | 210 | 3.2 | 9.7 | 0.00 | 0.00 | 0.00 | 43 | 1017.3 |
| 20260504192007 | 24 | 108 | 3.2 | 11.3 | 0.00 | 0.00 | 0.00 | 43 | 1017.4 |
| 20260504191005 | 25 | 158 | 0.0 | 8.0 | 0.00 | 0.00 | 0.00 | 43 | 1017.1 |
| 20260504190505 | 25 | 260 | 3.2 | 12.9 | 0.00 | 0.00 | 0.00 | 42 | 1017.0 |
| 20260504190019 | 25 | 85 | 3.2 | 12.9 | 0.00 | 0.00 | 0.00 | 46 | 1017.0 |
| 20260504185505 | 25 | 91 | 3.2 | 11.3 | 0.00 | 0.00 | 0.00 | 43 | 1017.2 |
| 20260504185009 | 25 | 228 | 4.8 | 12.9 | 0.00 | 0.00 | 0.00 | 47 | 1017.3 |
| 20260504184008 | 24 | 212 | 3.2 | 14.5 | 0.00 | 0.00 | 0.00 | 42 | 1017.5 |
| 20260504183512 | 25 | 143 | 4.8 | 14.5 | 0.00 | 0.00 | 0.00 | 42 | 1017.6 |
| 20260504183026 | 25 | 239 | 3.2 | 9.7 | 0.00 | 0.00 | 0.00 | 43 | 1017.6 |
| 20260504182507 | 25 | 223 | 3.2 | 12.9 | 0.00 | 0.00 | 0.00 | 42 | 1017.8 |
| 20260504182011 | 25 | 110 | 1.6 | 12.9 | 0.00 | 0.00 | 0.00 | 45 | 1017.8 |
| 20260504181510 | 24 | 211 | 1.6 | 9.7 | 0.00 | 0.00 | 0.00 | 42 | 1017.9 |
| 20260504181005 | 24 | 226 | 3.2 | 9.7 | 0.00 | 0.00 | 0.00 | 43 | 1018.0 |
| 20260504180507 | 25 | 220 | 4.8 | 9.7 | 0.00 | 0.00 | 0.00 | 44 | 1018.0 |
| 20260504180016 | 24 | 130 | 1.6 | 11.3 | 0.00 | 0.00 | 0.00 | 45 | 1017.9 |
| 20260504175504 | 24 | 205 | 3.2 | 11.3 | 0.00 | 0.00 | 0.00 | 42 | 1017.9 |
| 20260504175006 | 25 | 169 | 4.8 | 8.0 | 0.00 | 0.00 | 0.00 | 42 | 1017.9 |
| 20260504174520 | 25 | 34 | 3.2 | 8.0 | 0.00 | 0.00 | 0.00 | 44 | 1017.9 |
| 20260504174012 | 24 | 207 | 1.6 | 9.7 | 0.00 | 0.00 | 0.00 | 42 | 1018.0 |
| 20260504173511 | 25 | 210 | 1.6 | 9.7 | 0.00 | 0.00 | 0.00 | 42 | 1018.2 |
| 20260504173022 | 24 | 199 | 3.2 | 6.4 | 0.00 | 0.00 | 0.00 | 42 | 1018.1 |
| 20260504172507 | 24 | 259 | 1.6 | 9.7 | 0.00 | 0.00 | 0.00 | 39 | 1018.1 |
| 20260504172009 | 24 | 278 | 1.6 | 12.9 | 0.00 | 0.00 | 0.00 | 39 | 1018.2 |
| 20260504171526 | 24 | 219 | 4.8 | 12.9 | 0.00 | 0.00 | 0.00 | 41 | 1018.0 |
| 20260504171014 | 24 | 96 | 1.6 | 11.3 | 0.00 | 0.00 | 0.00 | 45 | 1017.9 |
| 20260504170508 | 23 | 152 | 3.2 | 11.3 | 0.00 | 0.00 | 0.00 | 44 | 1017.9 |
| 20260504151008 | 23 | 177 | 0.0 | 4.8 | 0.00 | 0.00 | 0.00 | 54 | 1018.6 |
| 20260504150512 | 22 | 117 | 0.0 | 3.2 | 0.00 | 0.00 | 0.00 | 54 | 1018.8 |
| 20260504141000 | 20 | 236 | 0.0 | 3.2 | 0.00 | 0.00 | 0.00 | 67 | 1018.7 |
| 20260504140504 | 20 | 233 | 0.0 | 1.6 | 0.00 | 0.00 | 0.00 | 69 | 1018.7 |
| 20260504130508 | 13 | 211 | 0.0 | 0.0 | 0.00 | 0.00 | 0.00 | 97 | 1018.7 |
| 20260504110508 | 9 | 211 | 0.0 | 0.0 | 0.00 | 0.00 | 0.00 | 96 | 1017.9 |
| 20260504100504 | 10 | 211 | 0.0 | 0.0 | 0.00 | 0.00 | 0.00 | 95 | 1018.1 |
| 20260504081537 | 11 | 211 | 0.0 | 0.0 | 0.00 | 0.00 | 0.00 | 95 | 1018.0 |
| 20260504081008 | 11 | 211 | 0.0 | 0.0 | 0.00 | 0.00 | 0.00 | 95 | 1018.0 |
| 20260504080508 | 11 | 211 | 0.0 | 0.0 | 0.00 | 0.00 | 0.00 | 95 | 1018.1 |
| 20260504050504 | 12 | 211 | 0.0 | 0.0 | 0.00 | 0.00 | 0.00 | 94 | 1019.4 |
| 20260504050020 | 12 | 211 | 0.0 | 0.0 | 0.00 | 0.00 | 0.00 | 94 | 1019.5 |
| 20260504045505 | 12 | 211 | 0.0 | 0.0 | 0.00 | 0.00 | 0.00 | 94 | 1019.5 |
| 20260504045006 | 12 | 211 | 0.0 | 0.0 | 0.00 | 0.00 | 0.00 | 93 | 1019.5 |
| 20260504044523 | 12 | 211 | 0.0 | 0.0 | 0.00 | 0.00 | 0.00 | 93 | 1019.5 |
| 20260504044007 | 12 | 211 | 0.0 | 0.0 | 0.00 | 0.00 | 0.00 | 94 | 1019.5 |
| 20260504043503 | 12 | 211 | 0.0 | 0.0 | 0.00 | 0.00 | 0.00 | 94 | 1019.5 |
| 20260504043005 | 12 | 211 | 0.0 | 0.0 | 0.00 | 0.00 | 0.00 | 93 | 1019.5 |
| 20260504042504 | 12 | 211 | 0.0 | 0.0 | 0.00 | 0.00 | 0.00 | 93 | 1019.5 |
| 20260504042005 | 12 | 211 | 0.0 | 0.0 | 0.00 | 0.00 | 0.00 | 93 | 1019.6 |
| 20260504041509 | 12 | 211 | 0.0 | 0.0 | 0.00 | 0.00 | 0.00 | 93 | 1019.5 |
| 20260504041003 | 12 | 211 | 0.0 | 0.0 | 0.00 | 0.00 | 0.00 | 93 | 1019.6 |
| 20260504040505 | 12 | 211 | 0.0 | 0.0 | 0.00 | 0.00 | 0.00 | 93 | 1019.5 |
| 20260504040016 | 12 | 211 | 0.0 | 0.0 | 0.00 | 0.00 | 0.00 | 93 | 1019.6 |
| 20260504035503 | 12 | 211 | 0.0 | 0.0 | 0.00 | 0.00 | 0.00 | 93 | 1019.5 |
| 20260504035004 | 12 | 211 | 0.0 | 0.0 | 0.00 | 0.00 | 0.00 | 93 | 1019.6 |
| 20260504034522 | 12 | 211 | 0.0 | 0.0 | 0.00 | 0.00 | 0.00 | 92 | 1019.6 |
| 20260504034006 | 12 | 211 | 0.0 | 0.0 | 0.00 | 0.00 | 0.00 | 92 | 1019.5 |
| 20260504033506 | 13 | 211 | 0.0 | 0.0 | 0.00 | 0.00 | 0.00 | 92 | 1019.6 |
| 20260504033023 | 13 | 211 | 0.0 | 0.0 | 0.00 | 0.00 | 0.00 | 92 | 1019.6 |
| 20260504032506 | 13 | 211 | 0.0 | 0.0 | 0.00 | 0.00 | 0.00 | 92 | 1019.6 |
| 20260504032006 | 13 | 211 | 0.0 | 0.0 | 0.00 | 0.00 | 0.00 | 92 | 1019.6 |
| 20260504031506 | 13 | 211 | 0.0 | 0.0 | 0.00 | 0.00 | 0.00 | 92 | 1019.6 |
| 20260504031004 | 13 | 211 | 0.0 | 0.0 | 0.00 | 0.00 | 0.00 | 91 | 1019.6 |
| 20260504030505 | 13 | 211 | 0.0 | 0.0 | 0.00 | 0.00 | 0.00 | 91 | 1019.5 |
| 20260504030021 | 13 | 211 | 0.0 | 0.0 | 0.00 | 0.00 | 0.00 | 91 | 1019.5 |
| 20260504025504 | 13 | 211 | 0.0 | 1.6 | 0.00 | 0.00 | 0.00 | 91 | 1019.5 |
| 20260504025004 | 13 | 211 | 0.0 | 1.6 | 0.00 | 0.00 | 0.00 | 91 | 1019.5 |
| 20260504024517 | 13 | 212 | 0.0 | 0.0 | 0.00 | 0.00 | 0.00 | 90 | 1019.5 |
| 20260504024003 | 13 | 211 | 0.0 | 0.0 | 0.00 | 0.00 | 0.00 | 90 | 1019.4 |
| 20260504023508 | 13 | 211 | 0.0 | 0.0 | 0.00 | 0.00 | 0.00 | 90 | 1019.3 |
| 20260504023021 | 13 | 211 | 0.0 | 0.0 | 0.00 | 0.00 | 0.00 | 89 | 1019.3 |
| 20260504022507 | 13 | 211 | 0.0 | 0.0 | 0.00 | 0.00 | 0.00 | 89 | 1019.3 |
| 20260504022007 | 13 | 211 | 0.0 | 0.0 | 0.00 | 0.00 | 0.00 | 88 | 1019.2 |
| 20260504021522 | 14 | 211 | 0.0 | 0.0 | 0.00 | 0.00 | 0.00 | 88 | 1019.2 |
| 20260504021007 | 14 | 211 | 0.0 | 0.0 | 0.00 | 0.00 | 0.00 | 88 | 1019.1 |
| 20260504020508 | 14 | 211 | 0.0 | 0.0 | 0.00 | 0.00 | 0.00 | 87 | 1019.1 |
| 20260504020006 | 14 | 211 | 0.0 | 0.0 | 0.00 | 0.00 | 0.00 | 87 | 1019.1 |
| 20260504015503 | 14 | 211 | 0.0 | 0.0 | 0.00 | 0.00 | 0.00 | 86 | 1018.9 |
| 20260504015006 | 15 | 211 | 0.0 | 0.0 | 0.00 | 0.00 | 0.00 | 85 | 1018.9 |
| 20260504014517 | 15 | 211 | 0.0 | 0.0 | 0.00 | 0.00 | 0.00 | 85 | 1018.8 |
| 20260504014003 | 15 | 211 | 0.0 | 0.0 | 0.00 | 0.00 | 0.00 | 85 | 1018.8 |
| 20260504013504 | 15 | 211 | 0.0 | 0.0 | 0.00 | 0.00 | 0.00 | 84 | 1018.8 |
| 20260504013031 | 15 | 211 | 0.0 | 0.0 | 0.00 | 0.00 | 0.00 | 84 | 1018.8 |
| 20260504012504 | 15 | 211 | 0.0 | 0.0 | 0.00 | 0.00 | 0.00 | 83 | 1018.7 |
| 20260504012007 | 16 | 211 | 0.0 | 0.0 | 0.00 | 0.00 | 0.00 | 82 | 1018.6 |
| 20260504011523 | 16 | 211 | 0.0 | 0.0 | 0.00 | 0.00 | 0.00 | 81 | 1018.6 |
| 20260504011006 | 16 | 211 | 0.0 | 0.0 | 0.00 | 0.00 | 0.00 | 78 | 1018.5 |
| 20260504010507 | 16 | 211 | 0.0 | 0.0 | 0.00 | 0.00 | 0.00 | 79 | 1018.5 |
| 20260504010026 | 16 | 211 | 0.0 | 0.0 | 0.00 | 0.00 | 0.00 | 77 | 1018.5 |
| 20260504005510 | 17 | 211 | 0.0 | 0.0 | 0.00 | 0.00 | 0.00 | 75 | 1018.4 |
| 20260504005014 | 17 | 211 | 0.0 | 0.0 | 0.00 | 0.00 | 0.00 | 77 | 1018.5 |
| 20260504004510 | 17 | 211 | 0.0 | 0.0 | 0.00 | 0.00 | 0.00 | 77 | 1018.5 |
| 20260504004004 | 17 | 211 | 0.0 | 0.0 | 0.00 | 0.00 | 0.00 | 76 | 1018.5 |
| 20260504003504 | 18 | 211 | 0.0 | 0.0 | 0.00 | 0.00 | 0.00 | 75 | 1018.4 |
| 20260504003016 | 18 | 211 | 0.0 | 0.0 | 0.00 | 0.00 | 0.00 | 71 | 1018.5 |
| 20260504002508 | 18 | 211 | 0.0 | 0.0 | 0.00 | 0.00 | 0.00 | 71 | 1018.5 |
| 20260504002006 | 19 | 211 | 0.0 | 0.0 | 0.00 | 0.00 | 0.00 | 72 | 1018.5 |
| 20260504001519 | 20 | 211 | 0.0 | 0.0 | 0.00 | 0.00 | 0.00 | 70 | 1018.5 |
| 20260504001005 | 20 | 211 | 0.0 | 0.0 | 0.00 | 0.00 | 0.00 | 65 | 1018.4 |
| 20260504000506 | 20 | 211 | 0.0 | 0.0 | 0.00 | 0.00 | 0.00 | 66 | 1018.3 |
| 20260504000023 | 21 | 211 | 0.0 | 0.0 | 0.00 | 0.00 | 0.00 | 62 | 1018.3 |
| 20260503235507 | 21 | 211 | 0.0 | 0.0 | 0.00 | 0.00 | 0.00 | 60 | 1018.4 |
| 20260503235007 | 21 | 211 | 0.0 | 1.6 | 0.00 | 0.00 | 0.00 | 57 | 1018.4 |
| 20260503234527 | 22 | 211 | 0.0 | 1.6 | 0.00 | 0.00 | 0.00 | 49 | 1018.4 |
| 20260503234009 | 22 | 144 | 0.0 | 3.2 | 0.00 | 0.00 | 0.00 | 49 | 1018.4 |
| 20260503233509 | 22 | 117 | 0.0 | 4.8 | 0.00 | 0.00 | 0.00 | 49 | 1018.5 |
| 20260503233018 | 22 | 191 | 0.0 | 4.8 | 0.00 | 0.00 | 0.00 | 50 | 1018.6 |
| 20260503232502 | 22 | 181 | 0.0 | 1.6 | 0.00 | 0.00 | 0.00 | 47 | 1018.6 |
| 20260503232010 | 22 | 258 | 0.0 | 6.4 | 0.00 | 0.00 | 0.00 | 46 | 1018.5 |
| 20260503231519 | 22 | 89 | 0.0 | 6.4 | 0.00 | 0.00 | 0.00 | 48 | 1018.6 |
| 20260503231004 | 22 | 264 | 1.6 | 6.4 | 0.00 | 0.00 | 0.00 | 47 | 1018.6 |
| 20260503230509 | 22 | 212 | 0.0 | 4.8 | 0.00 | 0.00 | 0.00 | 48 | 1018.6 |
| 20260503230021 | 23 | 157 | 0.0 | 4.8 | 0.00 | 0.00 | 0.00 | 46 | 1018.6 |
| 20260503225506 | 23 | 134 | 0.0 | 3.2 | 0.00 | 0.00 | 0.00 | 46 | 1018.6 |
| 20260503225010 | 23 | 255 | 0.0 | 4.8 | 0.00 | 0.00 | 0.00 | 44 | 1018.7 |
| 20260503224525 | 23 | 243 | 0.0 | 6.4 | 0.00 | 0.00 | 0.00 | 43 | 1018.6 |
| 20260503224007 | 23 | 245 | 1.6 | 6.4 | 0.00 | 0.00 | 0.00 | 42 | 1018.7 |
| 20260503223507 | 23 | 242 | 0.0 | 1.6 | 0.00 | 0.00 | 0.00 | 43 | 1018.7 |
| 20260503223028 | 23 | 228 | 0.0 | 8.0 | 0.00 | 0.00 | 0.00 | 43 | 1018.7 |
| 20260503222510 | 23 | 227 | 1.6 | 8.0 | 0.00 | 0.00 | 0.00 | 43 | 1018.8 |
| 20260503222006 | 23 | 257 | 1.6 | 6.4 | 0.00 | 0.00 | 0.00 | 42 | 1018.8 |
| 20260503221514 | 23 | 262 | 1.6 | 6.4 | 0.00 | 0.00 | 0.00 | 41 | 1018.9 |
| 20260503221011 | 23 | 238 | 0.0 | 8.0 | 0.00 | 0.00 | 0.00 | 42 | 1018.9 |
| 20260503220503 | 23 | 230 | 1.6 | 8.0 | 0.00 | 0.00 | 0.00 | 41 | 1019.0 |
| 20260503220019 | 23 | 229 | 1.6 | 8.0 | 0.00 | 0.00 | 0.00 | 43 | 1019.0 |
| 20260503215508 | 23 | 242 | 3.2 | 6.4 | 0.00 | 0.00 | 0.00 | 43 | 1018.9 |
| 20260503215010 | 23 | 227 | 0.0 | 4.8 | 0.00 | 0.00 | 0.00 | 42 | 1018.9 |
| 20260503214522 | 23 | 234 | 1.6 | 3.2 | 0.00 | 0.00 | 0.00 | 45 | 1019.2 |
| 20260503214007 | 23 | 221 | 0.0 | 4.8 | 0.00 | 0.00 | 0.00 | 42 | 1019.3 |
| 20260503213508 | 23 | 231 | 3.2 | 4.8 | 0.00 | 0.00 | 0.00 | 40 | 1019.4 |
| 20260503213027 | 24 | 248 | 0.0 | 6.4 | 0.00 | 0.00 | 0.00 | 41 | 1019.4 |
| 20260503212510 | 24 | 257 | 1.6 | 8.0 | 0.00 | 0.00 | 0.00 | 42 | 1019.4 |
| 20260503212010 | 23 | 252 | 1.6 | 8.0 | 0.00 | 0.00 | 0.00 | 42 | 1019.4 |
| 20260503211528 | 23 | 238 | 1.6 | 8.0 | 0.00 | 0.00 | 0.00 | 41 | 1019.5 |
| 20260503211007 | 23 | 235 | 1.6 | 8.0 | 0.00 | 0.00 | 0.00 | 42 | 1019.6 |
| 20260503210503 | 24 | 145 | 1.6 | 6.4 | 0.00 | 0.00 | 0.00 | 42 | 1019.7 |
| 20260503210015 | 24 | 240 | 1.6 | 4.8 | 0.00 | 0.00 | 0.00 | 39 | 1019.8 |
| 20260503205503 | 24 | 250 | 0.0 | 9.7 | 0.00 | 0.00 | 0.00 | 43 | 1020.0 |
| 20260503205003 | 23 | 219 | 1.6 | 9.7 | 0.00 | 0.00 | 0.00 | 40 | 1020.0 |
| 20260503204520 | 23 | 250 | 0.0 | 8.0 | 0.00 | 0.00 | 0.00 | 39 | 1020.0 |
| 20260503204006 | 23 | 237 | 1.6 | 8.0 | 0.00 | 0.00 | 0.00 | 42 | 1020.0 |
| 20260503203507 | 23 | 137 | 1.6 | 8.0 | 0.00 | 0.00 | 0.00 | 42 | 1020.1 |
| 20260503203042 | 23 | 250 | 3.2 | 9.7 | 0.00 | 0.00 | 0.00 | 41 | 1020.2 |
| 20260503202508 | 23 | 256 | 3.2 | 9.7 | 0.00 | 0.00 | 0.00 | 40 | 1020.2 |